Weather History for Cherokee, IA

Change the Weather History Date:

Saturday, January 4, 2014

  Actual Average Record
Temperature  
Mean Temperature 22 °F -  
Max Temperature 40 °F 24 °F 50 °F (1964)
Min Temperature 5 °F 3 °F -29 °F (1969)
Degree Days  
Heating Degree Days 42    
Moisture  
Dew Point 11 °F    
Average Humidity 70    
Maximum Humidity 81    
Minimum Humidity 58    
Precipitation  
Precipitation 0.00 in - - ()
Sea Level Pressure  
Sea Level Pressure 29.95 in    
Wind  
Wind Speed 13 mph (NNW)    
Max Wind Speed 26 mph    
Max Gust Speed 36 mph    
Visibility 10 miles    
Events Snow    
Averages and records for this station are not official NWS values.
T = Trace of Precipitation, MM = Missing Value Source: NWS Daily Summary

Daily Weather History Graph

Daily Weather History Graph

Search for Another Location

Airport:

Trip Planner

Search our weather history database for the weather conditions in past years. The results will help you decide how hot, cold, wet, or windy it might be!

Date:

Astronomy

Jan. 04, 2014 Rise Set
Actual Time 7:52 AM CST 5:01 PM CST
Civil Twilight 7:20 AM CST 5:33 PM CST
Nautical Twilight 6:45 AM CST 6:09 PM CST
Astronomical Twilight 6:11 AM CST 6:43 PM CST
Moon 9:53 AM CST (1/4) 9:29 PM CST (1/4)
Length of Visible Light 10h 13m
Length of Day
9h 09m
Waxing Crescent, 15% of the Moon is Illuminated
Jan 4
Waxing Crescent
Jan 7
First Quarter
Jan 15
Full
Jan 23
Last Quarter
Jan 30
New

Hourly Weather History & Observations

Time (CST) Temp. Windchill Dew Point Humidity Pressure Visibility Wind Dir Wind Speed Gust Speed Precip Events Conditions
12:15 AM 36.5 °F 29.2 °F 28.9 °F 74% 29.55 in 10.0 mi SW 10.4 mph 16.1 mph N/A   Overcast
12:35 AM 36.1 °F 28.7 °F 29.8 °F 78% 29.54 in 10.0 mi SSW 10.4 mph - N/A   Overcast
12:55 AM 36.5 °F 30.3 °F 30.2 °F 78% 29.54 in 10.0 mi SSW 8.1 mph - N/A   Overcast
1:15 AM 36.7 °F 30.5 °F 30.7 °F 79% 29.54 in 10.0 mi SSW 8.1 mph - N/A   Overcast
1:35 AM 37.4 °F 31.4 °F 31.1 °F 78% 29.55 in 10.0 mi SW 8.1 mph - N/A   Overcast
1:55 AM 37.6 °F 33.1 °F 31.8 °F 80% 29.56 in 10.0 mi WSW 5.8 mph - N/A   Overcast
2:15 AM 37.0 °F 31.0 °F 31.3 °F 80% 29.57 in 10.0 mi SW 8.1 mph - N/A   Mostly Cloudy
2:35 AM 37.4 °F 33.8 °F 32.0 °F 81% 29.59 in 10.0 mi WSW 4.6 mph - N/A   Scattered Clouds
2:55 AM 38.3 °F - 32.0 °F 78% 29.60 in 10.0 mi Calm Calm - N/A   Scattered Clouds
3:15 AM 38.1 °F 35.7 °F 32.0 °F 79% 29.61 in 10.0 mi WSW 3.5 mph - N/A   Mostly Cloudy
3:35 AM 38.3 °F 31.9 °F 32.2 °F 79% 29.62 in 10.0 mi WSW 9.2 mph - N/A   Mostly Cloudy
3:55 AM 40.1 °F 31.6 °F 32.0 °F 73% 29.63 in 10.0 mi WNW 16.1 mph 21.9 mph N/A   Overcast
4:15 AM 40.5 °F 32.1 °F 31.5 °F 70% 29.63 in 10.0 mi WNW 16.1 mph 23.0 mph N/A   Overcast
4:35 AM 39.2 °F 29.8 °F 31.5 °F 74% 29.66 in 10.0 mi NW 18.4 mph 28.8 mph N/A   Scattered Clouds
4:55 AM 37.2 °F 27.3 °F 31.8 °F 81% 29.69 in 10.0 mi NW 18.4 mph 28.8 mph N/A   Mostly Cloudy
5:15 AM 32.0 °F 18.4 °F 26.4 °F 80% 29.71 in 10.0 mi NNW 26.5 mph 33.4 mph N/A   Overcast
5:35 AM 28.6 °F 15.3 °F 22.8 °F 79% 29.75 in 10.0 mi NNW 20.7 mph 35.7 mph N/A   Overcast
5:55 AM 26.4 °F 13.2 °F 19.4 °F 75% 29.77 in 10.0 mi NNW 18.4 mph 34.5 mph N/A   Overcast
6:15 AM 24.6 °F 10.5 °F 17.8 °F 75% 29.78 in 10.0 mi NNW 19.6 mph 26.5 mph N/A   Overcast
6:35 AM 23.0 °F 9.6 °F 15.6 °F 73% 29.81 in 10.0 mi NNW 16.1 mph 31.1 mph N/A   Overcast
6:55 AM 21.2 °F 5.2 °F 12.9 °F 70% 29.84 in 10.0 mi NNW 21.9 mph 34.5 mph N/A   Overcast
7:15 AM 20.1 °F 5.4 °F 11.7 °F 70% 29.86 in 10.0 mi NNW 17.3 mph 26.5 mph N/A   Mostly Cloudy
7:35 AM 18.5 °F 3.3 °F 9.7 °F 68% 29.88 in 10.0 mi North 17.3 mph 26.5 mph N/A   Clear
7:55 AM 17.4 °F 2.9 °F 8.4 °F 68% 29.91 in 10.0 mi NNW 15.0 mph 29.9 mph N/A   Clear
8:15 AM 16.5 °F -0.1 °F 7.7 °F 68% 29.89 in 10.0 mi North 19.6 mph 27.6 mph N/A   Clear
8:35 AM 16.2 °F -1.4 °F 7.5 °F 69% 29.91 in 7.0 mi North 21.9 mph 33.4 mph N/A   Clear
8:55 AM 15.6 °F -1.8 °F 7.0 °F 69% 29.95 in 10.0 mi North 20.7 mph 27.6 mph N/A   Scattered Clouds
9:15 AM 14.9 °F -2.7 °F 5.2 °F 65% 29.96 in 10.0 mi North 20.7 mph 31.1 mph N/A   Clear
9:35 AM 14.7 °F -3.8 °F 5.5 °F 67% 29.96 in 10.0 mi NNW 23.0 mph 29.9 mph N/A   Clear
9:55 AM 14.9 °F -2.7 °F 5.9 °F 68% 29.96 in 10.0 mi North 20.7 mph 27.6 mph N/A   Clear
10:15 AM 15.3 °F -0.4 °F 5.9 °F 67% 29.98 in 10.0 mi North 16.1 mph 25.3 mph N/A   Clear
10:35 AM 15.3 °F -0.4 °F 5.5 °F 65% 30.01 in 10.0 mi North 16.1 mph 26.5 mph N/A   Scattered Clouds
10:55 AM 14.9 °F 0.3 °F 5.7 °F 67% 30.01 in 10.0 mi North 13.8 mph 23.0 mph N/A   Scattered Clouds
11:15 AM 15.4 °F 0.4 °F 5.4 °F 64% 30.02 in 10.0 mi North 15.0 mph 21.9 mph N/A   Scattered Clouds
11:35 AM 15.8 °F 0.9 °F 4.1 °F 60% 29.99 in 10.0 mi North 15.0 mph 27.6 mph N/A   Clear
11:55 AM 15.8 °F -0.2 °F 4.5 °F 61% 29.99 in 10.0 mi NNW 17.3 mph 25.3 mph N/A   Clear
12:15 PM 15.8 °F -0.2 °F 3.9 °F 60% 30.03 in 10.0 mi NNW 17.3 mph 25.3 mph N/A   Clear
12:35 PM 16.3 °F 1.6 °F 4.6 °F 60% 30.03 in 10.0 mi North 15.0 mph 23.0 mph N/A   Clear
12:55 PM 16.7 °F 0.5 °F 5.0 °F 60% 30.03 in 10.0 mi NNW 18.4 mph 25.3 mph N/A   Clear
1:15 PM 17.2 °F 1.2 °F 5.4 °F 60% 30.03 in 10.0 mi North 18.4 mph 25.3 mph N/A   Clear
1:35 PM 17.1 °F 1.5 °F 5.4 °F 60% 30.02 in 10.0 mi North 17.3 mph 24.2 mph N/A   Clear
1:55 PM 18.0 °F 2.6 °F 5.5 °F 58% 30.02 in 10.0 mi North 17.3 mph 25.3 mph N/A   Clear
2:15 PM 17.6 °F 1.3 °F 5.7 °F 60% 30.03 in 10.0 mi North 19.6 mph 25.3 mph N/A   Clear
2:35 PM 16.9 °F 2.3 °F 5.4 °F 61% 30.06 in 10.0 mi North 15.0 mph 18.4 mph N/A   Scattered Clouds
2:55 PM 16.7 °F 1.5 °F 5.9 °F 63% 30.08 in 10.0 mi NNW 16.1 mph 19.6 mph N/A   Clear
3:15 PM 16.7 °F 2.6 °F 6.6 °F 65% 30.07 in 10.0 mi North 13.8 mph 20.7 mph N/A   Clear
3:35 PM 17.1 °F 2.0 °F 6.4 °F 63% 30.08 in 10.0 mi NNW 16.1 mph 23.0 mph N/A   Clear
3:55 PM 16.7 °F 1.5 °F 6.4 °F 64% 30.08 in 10.0 mi North 16.1 mph - N/A   Clear
4:15 PM 16.7 °F 4.5 °F 6.8 °F 65% 30.09 in 10.0 mi North 10.4 mph - N/A   Clear
4:35 PM 16.3 °F 4.9 °F 6.8 °F 66% 30.10 in 10.0 mi NNW 9.2 mph 20.7 mph N/A   Clear
4:55 PM 16.0 °F 2.9 °F 7.0 °F 68% 30.11 in 10.0 mi North 11.5 mph - N/A   Clear
5:15 PM 15.8 °F 2.7 °F 6.8 °F 68% 30.12 in 10.0 mi North 11.5 mph - N/A   Clear
5:35 PM 15.6 °F 1.8 °F 7.3 °F 70% 30.12 in 10.0 mi North 12.7 mph 17.3 mph N/A   Clear
5:55 PM 15.4 °F 2.3 °F 7.0 °F 69% 30.12 in 10.0 mi North 11.5 mph 19.6 mph N/A   Clear
6:15 PM 15.1 °F 3.3 °F 7.2 °F 71% 30.14 in 10.0 mi North 9.2 mph - N/A   Clear
6:35 PM 14.7 °F 0.7 °F 7.3 °F 73% 30.15 in 10.0 mi North 12.7 mph 17.3 mph N/A   Clear
6:55 PM 13.8 °F 0.2 °F 6.6 °F 73% 30.16 in 7.0 mi North 11.5 mph - N/A Snow Light Snow
7:15 PM 12.2 °F -1.8 °F 5.0 °F 73% 30.17 in 10.0 mi North 11.5 mph - N/A   Scattered Clouds
7:35 PM 11.3 °F 0.7 °F 4.1 °F 73% 30.18 in 10.0 mi North 6.9 mph - N/A   Clear
7:55 PM 11.1 °F -1.6 °F 3.2 °F 70% 30.19 in 10.0 mi North 9.2 mph 18.4 mph N/A   Clear
8:15 PM 10.6 °F -0.2 °F 3.0 °F 72% 30.20 in 10.0 mi North 6.9 mph 16.1 mph N/A   Clear
8:35 PM 10.2 °F -3.5 °F 2.3 °F 70% 30.20 in 10.0 mi North 10.4 mph - N/A   Clear
8:55 PM 9.5 °F -3.5 °F 2.3 °F 73% 30.22 in 10.0 mi North 9.2 mph - N/A   Clear
9:15 PM 9.0 °F -4.2 °F 2.3 °F 74% 30.22 in 10.0 mi NNW 9.2 mph - N/A   Clear
9:35 PM 8.6 °F -6.3 °F 1.8 °F 74% 30.22 in 10.0 mi North 11.5 mph - N/A   Clear
9:55 PM 7.7 °F -9.5 °F 0.5 °F 72% 30.22 in 10.0 mi North 15.0 mph 18.4 mph N/A   Clear
10:15 PM 7.3 °F -7.1 °F -0.4 °F 71% 30.23 in 10.0 mi North 10.4 mph - N/A   Clear
10:35 PM 6.8 °F -8.6 °F -1.3 °F 69% 30.23 in 10.0 mi North 11.5 mph 18.4 mph N/A   Clear
10:55 PM 6.4 °F -9.8 °F -2.2 °F 68% 30.23 in 10.0 mi North 12.7 mph 18.4 mph N/A   Clear
11:15 PM 6.4 °F -9.8 °F -3.3 °F 64% 30.23 in 10.0 mi North 12.7 mph - N/A   Clear
11:35 PM 5.9 °F - -3.5 °F 65% 30.23 in 10.0 mi Calm Calm - N/A   Clear
11:55 PM 5.7 °F -8.2 °F -4.0 °F 64% 30.24 in 10.0 mi North 9.2 mph - N/A   Clear